Flag for Malta Weather past 2 weeks in Valletta, Malta

Now
84 °F

Scattered clouds.


Feels Like: 91 °F
Forecast: 75 / 85 °F
Wind: 12 mph from South

Location: Luqa

Current Time: Sep 16, 2014 at 4:01:57 PM

Latest Report: Sep 16, 2014 at 3:15 PM


Visibility: N/A

Pressure: 29.89 "Hg

Humidity: 70%

Dew point: 73 °F

Location of VallettaLocation

Historic Weather in Valletta — Graph

°F

Valletta temperature yesterday

Maximum temperature yesterday: 84 °F (at 11:45 AM)
Minimum temperature yesterday: 70 °F (at 4:15 AM)
Average temperature yesterday: 78 °F

Past Weeks' High & Low Weather Summary

 TemperatureHumidityPressure
High88 °F (Sep 9, 1:15 PM)94% (Sep 8, 4:45 AM)30.07 "Hg (Sep 8, 4:45 AM)
Low68 °F (Sep 4, 6:15 AM)29% (Sep 14, 3:15 PM)29.74 "Hg (Sep 2, 2:15 AM)
Average78 °F69%29.93 "Hg
* Reported Sep 1 2:15 PM — Sep 16 2:45 PM, Valletta, Weather by CustomWeather, © 2014

Note: Actual official high and low records may vary slightly from our data, if they occured in-between our weather recording intervals... More about our weather records

Advertising

Valletta weather history for previous 24 hours

 ConditionsComfort  
Time TempWeatherWind HumidityBarometerVisibility
2:45 PM
Sep 16
84 °FScattered clouds.13 mph70%29.92 "HgN/A
2:15 PM86 °FScattered clouds.14 mph66%29.92 "HgN/A
1:45 PM88 °FPartly sunny.9 mph59%29.92 "HgN/A
1:15 PM86 °FScattered clouds.7 mph62%29.95 "HgN/A
12:45 PM86 °FPartly sunny.8 mph62%29.95 "HgN/A
12:15 PM84 °FPartly sunny.7 mph70%29.95 "HgN/A
11:45 AM84 °FScattered clouds.13 mph70%29.92 "HgN/A
11:15 AM84 °FPassing clouds.12 mph70%29.92 "HgN/A
10:45 AM82 °FScattered clouds.6 mph74%29.98 "HgN/A
10:15 AM81 °FScattered clouds.8 mph79%29.95 "HgN/A
9:45 AM82 °FScattered clouds.8 mph74%29.95 "HgN/A
9:15 AM82 °FScattered clouds.8 mph74%29.95 "HgN/A
8:45 AM81 °FPassing clouds.7 mph79%29.95 "HgN/A
8:15 AM79 °FPassing clouds.5 mph89%29.95 "HgN/A
7:45 AM79 °FScattered clouds.5 mph89%29.95 "HgN/A
7:15 AM77 °FPassing clouds.3 mph89%29.95 "HgN/A
6:45 AM77 °FPassing clouds.6 mph89%29.95 "Hg5 mi
6:15 AM75 °FPassing clouds.6 mph94%29.95 "HgN/A
5:45 AM75 °FPassing clouds.7 mph94%29.92 "HgN/A
5:15 AM75 °FPassing clouds.7 mph94%29.92 "HgN/A
4:45 AM75 °FPassing clouds.9 mph94%29.92 "HgN/A
4:15 AM75 °FPartly cloudy.8 mph94%29.92 "HgN/A
4:00 AM75 °FPassing clouds.8 mph94%29.92 "HgN/A
3:15 AM75 °FClear.6 mph89%29.92 "Hg10 mi
2:45 AM75 °FClear.6 mph89%29.95 "Hg10 mi
2:15 AM75 °FClear.5 mph89%29.98 "Hg10 mi
1:45 AM75 °FClear.2 mph83%29.98 "Hg10 mi
1:15 AM75 °FClear.1 mph83%29.98 "Hg10 mi
12:45 AM75 °FClear.1 mph83%29.98 "Hg10 mi
12:15 AM75 °FClear.1 mph83%29.98 "Hg10 mi
11:45 PM
Sep 15
75 °FClear.1 mph83%29.98 "Hg10 mi
11:15 PM77 °FClear.3 mph79%29.98 "Hg10 mi
10:45 PM77 °FClear.3 mph79%29.98 "Hg10 mi
10:15 PM77 °FClear.2 mph79%29.98 "Hg10 mi
9:45 PM77 °FClear.3 mph79%29.98 "Hg10 mi
9:15 PM77 °FClear.6 mph79%29.98 "Hg10 mi
8:45 PM77 °FClear.6 mph79%29.95 "Hg10 mi
8:15 PM79 °FClear.5 mph74%29.95 "Hg10 mi
7:45 PM77 °FPassing clouds.6 mph79%29.95 "HgN/A
7:15 PM79 °FPassing clouds.6 mph74%29.95 "HgN/A
6:45 PM81 °FSunny.6 mph66%29.95 "Hg10 mi
6:15 PM82 °FPassing clouds.6 mph58%29.95 "HgN/A
5:45 PM82 °FPassing clouds.6 mph62%29.95 "HgN/A
5:15 PM82 °FPassing clouds.8 mph62%29.95 "HgN/A
4:15 PM84 °FPassing clouds.7 mph51%29.95 "HgN/A
Weather by CustomWeather, © 2014

See weather overviewHow to use our weather pages